GFSNW_prec_kuchsnow_207.txt.gz
Snowfall_Accumulation
0.0 0.0 0.0 0.0 0.0 0.0 0.0 0.0 6.7 0.0 0.0 0.9 5.8 5.4 1.5 0.0 0.0 0.0 0.0 0.0 0.0 0.0 0.0 0.1 0.2 0.1 0.0 0.0 0.0 0.0 0.0 1.5 5.2 0.3 0.0 0.0 0.0 0.0 0.0 5.2 3.6 1.2 2.9 8.1
0.0 0.0 0.0 0.0 0.0 0.0 0.0 0.0 0.0 0.0 0.0 6.8 3.4 0.2 0.5 0.0 0.0 0.0 0.0 0.0 0.0 0.0 0.0 0.0 0.0 0.0 0.0 0.0 0.0 0.0 0.0 4.9 7.6 4.3 0.3 0.0 1.9 0.2 0.1 1.0 2.2 4.6 3.9 4.0
0.0 0.0 0.0 0.0 0.0 0.0 0.0 0.0 7.1 0.0 0.0 0.0 0.0 0.6 0.6 0.1 0.0 0.0 0.0 0.0 0.0 0.0 0.0 0.0 0.0 0.0 0.0 0.0 0.0 0.0 0.0 1.5 5.5 6.2 3.4 3.3 4.4 0.7 0.8 3.5 10.0 0.9 0.6 0.2
0.0 0.0 0.0 0.0 0.0 0.0 0.0 0.0 0.4 0.0 4.7 1.1 0.0 0.1 0.1 0.0 0.0 0.0 0.0 0.0 0.0 0.0 0.1 0.0 0.0 0.0 0.0 0.0 0.0 0.0 0.0 8.5 8.9 2.1 1.0 2.3 3.0 1.0 0.5 4.2 0.9 4.1 0.0 0.0
0.0 0.0 0.0 0.0 0.0 0.0 0.0 0.1 0.0 0.0 0.0 0.0 0.4 0.2 0.0 0.0 0.0 0.0 0.0 0.0 0.0 0.0 0.0 0.0 0.0 0.0 0.0 0.0 0.0 0.0 0.0 7.2 4.3 2.1 0.4 1.9 3.2 0.5 0.3 0.1 0.1 0.1 0.0 0.0
0.0 0.0 0.0 0.0 0.0 0.0 0.0 0.0 0.0 0.0 0.0 0.3 0.1 0.0 0.0 0.0 0.0 0.0 0.0 0.0 0.0 0.0 0.0 0.0 0.0 0.0 0.0 0.0 0.0 0.0 0.5 3.8 5.5 5.7 1.1 1.6 2.6 0.4 0.1 0.0 0.0 0.0 0.6 0.0
0.0 0.0 0.0 0.0 0.0 0.0 0.0 0.0 0.0 0.3 0.1 0.0 0.0 0.0 0.0 0.0 0.0 0.0 0.0 0.0 0.0 0.0 0.0 0.0 0.0 0.0 0.0 0.0 0.0 0.0 0.0 1.2 3.0 6.5 3.4 7.1 0.0 0.0 0.0 0.0 0.0 0.0 0.0 0.0
0.0 0.0 0.0 0.0 0.0 0.0 0.0 0.0 0.0 0.3 0.9 0.0 0.0 0.0 0.0 0.0 0.0 0.0 0.0 0.0 0.0 0.0 0.0 0.0 0.0 0.0 0.0 0.0 0.0 0.0 0.0 0.0 1.7 2.4 2.1 0.0 0.0 0.0 0.0 0.0 0.0 0.0 0.0 0.0
0.0 0.0 0.0 0.0 0.0 0.0 0.0 0.0 0.0 0.1 1.4 0.1 0.0 0.4 0.2 0.2 0.0 0.0 0.0 0.0 0.0 0.0 0.0 0.0 1.2 0.3 0.0 0.0 0.0 0.0 0.0 0.0 0.4 1.0 2.8 0.7 0.0 0.0 0.0 0.0 0.0 0.0 0.0 0.0
0.0 0.0 0.0 0.0 0.0 0.0 0.0 0.0 0.0 0.0 2.3 0.0 0.0 0.1 0.6 0.2 0.6 1.2 0.0 0.0 0.2 0.0 0.0 1.4 0.6 0.2 0.0 0.1 0.0 0.2 0.1 0.1 1.2 0.9 2.1 0.0 0.0 0.0 0.0 0.1 0.0 0.0 0.0 0.0
0.0 0.0 0.0 0.0 0.0 0.0 0.0 0.0 0.0 0.0 1.2 0.1 0.0 0.0 0.2 0.3 0.4 1.8 0.3 0.8 0.0 0.2 2.0 2.6 1.3 0.9 0.8 0.5 0.6 0.5 0.5 0.5 0.4 0.8 2.2 0.3 0.0 0.0 0.0 0.0 0.0 0.0 0.0 0.0
0.0 0.0 0.0 0.0 0.0 0.0 0.0 0.0 0.0 0.0 0.5 0.5 0.0 0.0 0.0 0.0 0.0 0.2 0.3 0.3 1.1 1.3 1.6 0.5 2.4 3.2 1.6 0.9 1.8 0.0 1.2 1.1 1.9 0.7 0.4 0.0 0.0 0.0 0.0 0.0 0.0 0.0 0.0 0.0
0.0 0.0 0.0 0.0 0.0 0.0 0.0 0.0 0.0 0.0 0.9 0.0 0.0 0.0 0.0 0.0 0.0 0.0 1.6 0.0 0.0 0.7 0.3 2.3 2.9 3.5 1.4 2.1 1.4 0.0 0.0 0.7 0.6 1.5 0.0 0.0 0.0 0.0 0.0 0.0 0.0 0.0 0.0 0.0
0.0 0.0 0.0 0.0 0.0 0.0 0.0 0.0 0.0 0.0 0.7 11.1 0.4 0.0 0.0 0.0 0.0 0.0 0.0 0.0 0.0 0.0 0.1 3.2 6.9 4.4 0.5 0.4 0.1 0.2 0.1 0.1 0.4 0.5 0.0 0.0 0.0 0.0 0.0 0.0 0.0 0.0 0.0 0.0
0.0 0.0 0.0 0.0 0.0 0.0 0.0 0.0 0.0 0.0 0.9 6.1 1.1 0.0 0.0 0.0 0.0 0.0 0.0 0.0 0.0 0.6 1.8 4.4 4.6 0.0 0.6 0.2 0.4 0.4 0.0 0.0 0.1 0.4 0.0 0.0 0.1 0.0 0.0 0.0 0.0 0.0 0.0 0.0
0.0 0.0 0.0 0.0 0.0 0.0 0.0 1.9 0.0 0.0 0.0 7.1 18.0 0.0 0.0 0.0 0.0 0.0 0.0 0.0 0.2 0.0 2.4 3.0 0.1 0.0 0.3 5.1 3.2 0.0 0.0 0.0 0.0 0.0 0.0 0.0 0.0 0.0 0.0 0.0 0.0 0.0 0.0 0.0
0.0 0.0 0.0 0.0 0.0 0.0 0.7 3.4 0.0 0.0 0.0 9.7 24.9 8.5 0.0 0.0 0.0 0.0 0.0 0.0 0.0 0.1 2.1 2.5 0.5 0.4 1.1 9.1 4.9 0.0 0.0 0.0 0.0 0.0 0.0 0.0 0.0 0.0 0.0 0.0 0.0 0.0 0.0 0.0
0.0 0.0 0.0 0.0 0.0 0.0 0.0 0.0 0.0 0.0 0.0 6.0 32.6 15.5 1.8 0.0 0.0 1.5 0.0 0.0 0.3 0.5 0.8 0.4 0.3 0.4 1.8 9.5 0.3 0.0 0.0 0.0 0.0 0.0 0.0 0.0 0.0 0.0 0.0 0.0 0.0 0.0 0.0 0.0
0.0 0.0 0.0 0.0 0.0 0.0 0.0 0.0 0.0 0.0 1.3 33.9 20.2 10.1 6.3 0.1 0.1 0.4 0.9 0.1 8.7 2.0 2.5 3.1 0.9 2.8 5.6 0.1 0.0 0.0 0.0 0.0 0.0 0.0 0.0 0.0 0.0 0.0 0.0 0.0 0.0 0.0 0.0 0.0
0.0 0.0 3.3 20.8 0.3 0.0 0.0 0.0 2.2 9.2 18.0 13.4 16.3 2.0 4.1 0.1 1.3 5.7 6.8 7.6 10.0 12.9 4.4 0.5 5.8 2.5 0.2 0.0 0.0 0.0 0.0 0.0 0.0 0.0 0.1 0.0 0.0 0.0 0.0 0.0 0.0 0.0 0.0 0.0
0.0 11.8 15.0 8.9 0.0 3.8 12.8 34.2 37.3 33.0 39.3 18.4 7.9 4.4 4.5 0.5 6.6 7.7 7.2 14.1 10.5 15.5 2.8 3.1 6.2 1.6 0.2 0.0 0.1 0.0 0.0 0.0 0.0 0.0 0.0 0.0 0.0 0.0 0.0 0.0 0.0 0.0 0.1 0.0
3.4 3.0 5.0 6.4 13.5 28.1 42.3 34.9 17.6 21.1 20.3 12.2 8.1 1.9 0.7 2.8 4.1 12.6 15.2 18.0 12.9 10.6 1.3 9.1 3.1 0.0 0.0 0.2 0.3 0.2 0.0 0.0 0.0 0.0 0.0 0.0 0.0 0.0 0.1 0.6 0.7 0.1 0.3 0.2
2.8 11.1 28.7 26.3 23.5 35.7 26.5 14.5 8.4 10.3 5.2 3.0 2.5 4.4 2.8 4.9 7.3 17.9 17.1 23.0 15.2 2.3 8.6 0.8 0.2 0.1 0.3 0.4 0.4 0.1 0.0 0.0 0.0 0.6 0.7 0.5 0.1 0.0 0.2 0.5 0.8 0.6 0.8 1.3
20.1 36.9 45.3 29.6 21.1 9.8 5.0 4.1 4.1 1.2 2.1 0.9 0.9 5.6 7.1 6.2 12.8 10.9 21.4 6.7 6.1 11.7 5.2 1.7 0.4 0.2 0.7 0.5 0.5 0.2 0.1 0.0 0.0 0.0 0.1 0.3 0.6 0.7 0.5 0.8 0.6 1.2 2.2 3.2
35.5 31.7 29.2 14.8 6.4 4.5 3.7 2.3 2.4 3.0 2.5 3.9 4.4 5.7 6.5 10.1 17.9 13.0 12.2 15.6 8.0 2.2 1.1 0.3 0.9 1.4 1.2 2.2 2.1 1.1 0.6 0.4 0.6 0.5 0.5 1.5 0.2 1.1 2.4 2.8 2.7 2.9 3.4 3.5
30.6 28.4 17.8 6.3 3.7 5.0 5.3 4.4 5.3 5.0 5.4 5.4 11.2 15.1 16.7 19.2 16.8 15.9 7.8 8.1 4.0 3.0 3.5 3.7 4.1 4.3 3.1 3.1 5.1 6.9 7.1 6.5 4.5 5.6 7.1 6.1 3.7 3.1 3.9 4.9 5.0 3.7 2.3 1.4
37.0 17.0 7.3 8.4 8.4 8.1 8.9 6.8 7.1 5.6 10.1 12.7 17.1 25.6 15.1 9.3 12.3 5.5 2.1 3.4 2.7 4.0 5.1 5.0 4.6 4.8 5.3 5.4 7.0 9.2 11.2 12.5 8.7 8.3 7.7 7.6 5.9 4.5 3.1 3.1 2.5 1.4 0.5 0.2

GFSNW_prec_kuchsnow_210.txt.gz
Snowfall_Accumulation
0.0 0.0 0.0 0.0 0.0 0.0 0.0 0.0 6.7 0.0 0.0 0.9 5.8 5.4 1.5 0.0 0.0 0.0 0.0 0.0 0.0 0.0 0.0 0.1 0.2 0.1 0.0 0.0 0.0 0.0 0.0 1.5 5.2 0.3 0.0 0.0 0.0 0.0 0.0 5.2 3.6 1.2 2.9 8.1
0.0 0.0 0.0 0.0 0.0 0.0 0.0 0.0 0.0 0.0 0.0 6.8 3.4 0.2 0.5 0.0 0.0 0.0 0.0 0.0 0.0 0.0 0.0 0.0 0.0 0.0 0.0 0.0 0.0 0.0 0.0 4.9 7.6 4.3 0.3 0.0 1.9 0.2 0.1 1.0 2.2 4.6 3.9 4.0
0.0 0.0 0.0 0.0 0.0 0.0 0.0 0.0 7.1 0.0 0.0 0.0 0.0 0.6 0.6 0.1 0.0 0.0 0.0 0.0 0.0 0.0 0.0 0.0 0.0 0.0 0.0 0.0 0.0 0.0 0.0 1.5 5.5 6.2 3.4 3.3 4.4 0.7 0.8 3.5 10.0 0.9 0.6 0.2
0.0 0.0 0.0 0.0 0.0 0.0 0.0 0.0 0.4 0.0 4.7 1.1 0.0 0.1 0.1 0.0 0.0 0.0 0.0 0.0 0.0 0.0 0.1 0.0 0.0 0.0 0.0 0.0 0.0 0.0 0.0 8.5 8.9 2.1 1.0 2.3 3.0 1.0 0.5 4.2 0.9 4.1 0.0 0.0
0.0 0.0 0.0 0.0 0.0 0.0 0.0 0.1 0.0 0.0 0.0 0.0 0.4 0.2 0.0 0.0 0.0 0.0 0.0 0.0 0.0 0.0 0.0 0.0 0.0 0.0 0.0 0.0 0.0 0.0 0.0 7.2 4.3 2.1 0.4 1.9 3.2 0.5 0.3 0.1 0.1 0.1 0.0 0.0
0.0 0.0 0.0 0.0 0.0 0.0 0.0 0.0 0.0 0.0 0.0 0.3 0.1 0.0 0.0 0.0 0.0 0.0 0.0 0.0 0.0 0.0 0.0 0.0 0.0 0.0 0.0 0.0 0.0 0.0 0.5 3.8 5.5 5.7 1.1 1.6 2.6 0.4 0.1 0.0 0.0 0.0 0.6 0.0
0.0 0.0 0.0 0.0 0.0 0.0 0.0 0.0 0.0 0.3 0.1 0.0 0.0 0.0 0.0 0.0 0.0 0.1 0.0 0.0 0.0 0.0 0.0 0.0 0.0 0.0 0.0 0.0 0.0 0.0 0.0 1.2 3.0 6.5 3.4 7.4 0.0 0.0 0.0 0.0 0.0 0.0 0.0 0.0
0.0 0.0 0.0 0.0 0.0 0.0 0.0 0.0 0.0 0.3 0.9 0.0 0.0 0.0 0.0 0.0 0.0 0.0 0.0 0.0 0.0 0.0 0.0 0.0 0.0 0.0 0.0 0.0 0.0 0.0 0.0 0.0 1.7 2.4 2.1 0.0 0.0 0.0 0.0 0.0 0.0 0.0 0.0 0.0
0.0 0.0 0.0 0.0 0.0 0.0 0.0 0.0 0.0 0.1 1.6 0.1 0.0 0.4 0.2 0.2 0.0 0.0 0.0 0.0 0.0 0.0 0.0 0.0 1.2 0.3 0.0 0.0 0.0 0.0 0.0 0.0 1.0 1.0 3.2 0.8 0.0 0.0 0.0 0.0 0.0 0.0 0.0 0.0
0.0 0.0 0.0 0.0 0.0 0.0 0.0 0.0 0.0 0.1 2.8 0.0 0.0 0.1 0.6 0.2 0.6 1.4 0.0 0.0 0.2 0.0 0.0 1.4 0.6 0.2 0.0 0.1 0.0 0.2 0.1 0.1 1.7 1.6 3.4 0.0 0.0 0.0 0.0 0.1 0.0 0.0 0.0 0.0
0.0 0.0 0.0 0.0 0.0 0.0 0.0 0.0 0.0 0.0 1.6 0.2 0.0 0.0 0.2 0.3 0.4 2.0 0.3 1.0 0.0 0.2 2.2 2.8 1.3 0.9 1.0 0.8 0.6 0.6 0.9 0.9 0.4 0.8 2.6 0.3 0.0 0.0 0.3 0.2 0.0 0.0 0.0 0.0
0.0 0.0 0.0 0.0 0.0 0.0 0.0 0.0 0.0 0.0 0.6 0.6 0.0 0.0 0.0 0.0 0.0 0.2 0.3 0.3 1.1 1.3 1.6 0.5 2.4 3.3 1.7 0.9 1.8 0.0 1.2 1.1 2.1 1.1 0.8 0.0 0.0 0.3 0.0 0.0 0.1 0.0 0.0 0.0
0.0 0.0 0.0 0.0 0.0 0.0 0.0 0.0 0.0 0.0 1.0 0.0 0.0 0.0 0.0 0.0 0.0 0.0 1.7 0.0 0.0 0.7 0.3 2.3 3.3 4.0 1.6 2.4 1.4 0.0 0.0 0.7 0.6 1.5 0.0 0.0 0.0 0.0 0.0 0.0 0.0 0.0 0.0 0.0
0.0 0.0 0.0 0.0 0.0 0.0 0.0 0.0 0.0 0.0 0.9 11.6 0.4 0.0 0.0 0.0 0.0 0.0 0.0 0.0 0.0 0.0 0.1 3.7 8.2 5.4 0.9 0.6 0.1 0.2 0.1 0.1 0.4 0.5 0.0 0.0 0.0 0.0 0.0 0.0 0.0 0.0 0.0 0.0
0.0 0.0 0.0 0.0 0.0 0.0 0.0 0.0 0.0 0.0 1.0 6.3 1.1 0.0 0.0 0.0 0.0 0.0 0.0 0.0 0.0 0.6 1.9 5.1 5.5 0.0 0.9 0.2 0.7 0.7 0.0 0.0 0.1 0.4 0.0 0.0 0.1 0.0 0.0 0.0 0.0 0.0 0.0 0.0
0.0 0.0 0.0 0.0 0.0 0.0 0.0 1.9 0.0 0.0 0.0 7.7 18.3 0.0 0.0 0.0 0.0 0.0 0.0 0.0 0.2 0.0 2.8 3.6 0.1 0.0 0.5 5.9 3.6 0.0 0.0 0.0 0.0 0.0 0.0 0.0 0.0 0.0 0.0 0.0 0.0 0.0 0.0 0.0
0.0 0.0 0.0 0.0 0.0 0.0 0.8 3.4 0.0 0.0 0.0 10.8 26.8 8.9 0.0 0.0 0.0 0.0 0.0 0.0 0.0 0.2 3.2 3.3 0.5 0.4 1.3 10.5 5.9 0.0 0.0 0.0 0.0 0.0 0.0 0.0 0.0 0.0 0.0 0.0 0.0 0.0 0.0 0.0
0.0 0.0 0.0 0.0 0.0 0.0 0.0 0.0 0.0 0.0 0.0 6.0 32.6 15.5 1.8 0.0 0.0 1.5 0.0 0.0 0.3 0.5 1.1 0.5 0.4 0.6 2.6 11.0 0.3 0.0 0.0 0.0 0.0 0.0 0.0 0.0 0.0 0.0 0.0 0.0 0.0 0.0 0.0 0.0
0.0 0.0 0.0 0.0 0.0 0.0 0.0 0.0 0.0 0.0 1.5 34.7 20.5 10.3 6.4 0.1 0.1 0.4 0.9 0.1 8.9 2.0 2.9 3.4 1.2 3.1 6.3 0.2 0.3 0.1 0.0 0.2 0.1 0.0 0.0 0.0 0.0 0.0 0.0 0.0 0.0 0.0 0.0 0.0
0.0 0.0 3.3 20.8 0.3 0.0 0.0 0.0 2.2 9.2 18.4 14.2 17.2 2.9 4.7 0.1 1.3 5.7 6.8 7.6 10.3 13.1 4.4 0.5 6.1 2.5 0.2 0.0 0.0 0.0 0.0 0.0 0.0 0.1 0.1 0.0 0.0 0.0 0.0 0.0 0.0 0.0 0.0 0.0
0.0 11.8 15.0 8.9 0.0 3.8 12.8 34.2 37.3 33.0 39.3 18.4 9.7 5.1 4.7 0.5 6.6 7.7 7.2 14.1 10.5 16.0 2.8 3.1 6.4 2.1 0.5 0.0 0.1 0.0 0.0 0.0 0.0 0.0 0.0 0.0 0.0 0.0 0.0 0.0 0.0 0.0 0.1 0.0
3.4 3.0 5.0 6.6 13.5 28.1 42.3 34.9 17.6 21.3 21.2 13.2 8.1 1.9 0.7 2.8 4.1 12.9 15.2 18.6 13.2 10.8 1.3 9.6 3.7 0.6 0.0 0.2 0.3 0.2 0.0 0.0 0.0 0.0 0.0 0.0 0.0 0.0 0.1 0.6 0.7 0.1 0.3 0.2
2.8 11.1 29.4 26.4 23.5 35.7 26.5 14.5 8.4 10.3 5.2 3.0 2.5 4.4 2.8 4.9 7.3 17.9 17.1 23.0 15.2 3.3 10.6 2.4 1.1 0.1 0.3 0.4 0.4 0.1 0.0 0.0 0.0 0.6 0.7 0.5 0.1 0.0 0.2 0.5 0.8 0.6 0.8 1.3
20.6 36.9 45.3 29.6 21.1 9.8 5.0 4.1 4.1 1.2 2.1 0.9 0.9 5.6 7.1 6.2 12.8 10.9 21.9 6.7 7.5 13.9 6.2 1.7 0.4 0.2 0.8 0.6 0.5 0.3 0.3 0.3 0.2 0.2 0.1 0.3 0.6 0.7 0.5 0.8 0.6 1.2 2.2 3.7
36.4 31.7 29.3 14.8 6.4 4.5 3.7 2.3 2.4 3.1 2.7 4.0 4.4 5.7 6.5 10.1 18.3 13.5 12.2 16.9 9.5 2.7 1.4 0.6 1.1 1.7 1.7 2.8 2.6 1.8 1.4 1.2 1.6 1.9 0.8 1.5 0.2 1.1 2.4 2.8 2.7 2.9 3.4 4.8
30.6 28.4 17.8 6.3 3.7 5.0 5.3 4.4 5.4 5.0 5.4 5.4 11.3 15.3 17.2 19.7 17.8 16.9 8.6 8.1 4.3 3.3 4.2 4.2 4.4 4.7 3.9 4.2 6.3 7.8 8.2 8.1 6.7 8.9 10.1 7.7 4.4 3.3 4.1 5.2 5.4 4.6 3.6 3.2
37.0 17.0 7.3 8.4 9.1 9.0 9.3 6.9 7.2 5.7 10.3 12.8 17.5 26.3 15.9 9.8 13.0 6.0 2.3 3.9 3.3 4.8 5.8 5.5 5.6 6.3 6.9 7.0 8.6 10.7 12.6 14.4 11.4 11.6 12.0 11.3 8.4 5.2 3.3 4.0 3.8 2.3 0.8 0.5

GFSNW_prec_kuchsnow_213.txt.gz
Snowfall_Accumulation
0.0 0.0 0.0 0.0 0.0 0.0 0.0 0.0 6.7 0.0 0.0 0.9 5.8 5.4 1.5 0.0 0.0 0.0 0.0 0.0 0.0 0.0 0.0 0.1 0.2 0.1 0.0 0.0 0.0 0.0 0.0 1.5 5.2 0.3 0.0 0.0 0.0 0.0 0.0 5.2 3.6 1.2 2.9 8.1
0.0 0.0 0.0 0.0 0.0 0.0 0.0 0.0 0.0 0.0 0.0 6.8 3.4 0.2 0.5 0.0 0.0 0.0 0.0 0.0 0.0 0.0 0.0 0.0 0.0 0.0 0.0 0.0 0.0 0.0 0.0 4.9 7.6 4.3 0.3 0.0 1.9 0.2 0.1 1.0 2.2 4.6 3.9 4.0
0.0 0.0 0.0 0.0 0.0 0.0 0.0 0.0 7.1 0.0 0.0 0.0 0.0 0.6 0.6 0.1 0.0 0.0 0.0 0.0 0.0 0.0 0.0 0.0 0.0 0.0 0.0 0.0 0.0 0.0 0.0 1.5 5.5 6.2 3.4 3.3 4.4 0.7 0.8 3.5 10.0 0.9 0.6 0.2
0.0 0.0 0.0 0.0 0.0 0.0 0.0 0.0 0.4 0.0 4.7 1.1 0.0 0.1 0.1 0.0 0.0 0.0 0.0 0.0 0.0 0.0 0.1 0.0 0.0 0.0 0.0 0.0 0.0 0.0 0.0 8.5 8.9 2.1 1.0 2.3 3.0 1.0 0.5 4.2 0.9 4.1 0.0 0.0
0.0 0.0 0.0 0.0 0.0 0.0 0.0 0.1 0.0 0.0 0.0 0.0 0.4 0.2 0.0 0.0 0.0 0.0 0.0 0.0 0.0 0.0 0.0 0.0 0.0 0.0 0.0 0.0 0.0 0.0 0.0 7.2 4.3 2.1 0.4 1.9 3.2 0.5 0.3 0.1 0.1 0.1 0.0 0.0
0.0 0.0 0.0 0.0 0.0 0.0 0.0 0.0 0.0 0.0 0.0 0.3 0.1 0.0 0.0 0.0 0.0 0.0 0.0 0.0 0.0 0.0 0.0 0.0 0.0 0.0 0.0 0.0 0.0 0.0 0.5 3.8 5.5 5.7 1.1 1.6 2.6 0.4 0.1 0.0 0.0 0.0 0.6 0.0
0.0 0.0 0.0 0.0 0.0 0.0 0.0 0.0 0.0 0.3 0.1 0.0 0.0 0.0 0.0 0.0 0.0 0.1 0.0 0.0 0.0 0.0 0.0 0.0 0.0 0.0 0.0 0.0 0.0 0.0 0.0 1.2 3.0 6.5 3.4 7.4 0.0 0.0 0.0 0.0 0.0 0.0 0.0 0.0
0.0 0.0 0.0 0.0 0.0 0.0 0.0 0.0 0.0 0.3 0.9 0.0 0.0 0.0 0.0 0.0 0.0 0.0 0.0 0.0 0.0 0.0 0.0 0.0 0.0 0.0 0.0 0.0 0.0 0.0 0.0 0.6 2.2 2.4 2.1 0.0 0.0 0.0 0.0 0.0 0.0 0.0 0.0 0.0
0.0 0.0 0.0 0.0 0.0 0.0 0.0 0.0 0.0 0.1 2.0 0.1 0.0 0.4 0.2 0.2 0.0 0.0 0.0 0.0 0.0 0.0 0.0 0.0 1.2 0.3 0.0 0.0 0.0 0.0 0.0 0.0 1.3 1.0 3.6 0.9 0.0 0.0 0.0 0.0 0.2 0.0 0.0 0.0
0.0 0.0 0.0 0.0 0.0 0.0 0.0 0.0 0.0 0.1 3.3 0.0 0.0 0.1 0.6 0.2 0.6 1.7 0.0 0.0 0.2 0.0 0.0 1.4 0.6 0.2 0.0 0.1 0.0 0.2 0.1 0.1 2.1 2.1 4.4 0.4 0.0 0.0 0.0 0.1 0.6 0.0 0.0 0.0
0.0 0.0 0.0 0.0 0.0 0.0 0.0 0.0 0.0 0.0 2.1 0.2 0.0 0.0 0.2 0.3 0.5 2.3 0.3 1.3 0.1 0.2 2.2 2.8 1.3 0.9 1.1 0.8 0.6 0.7 0.9 1.4 0.6 0.8 2.6 0.4 0.0 0.0 0.3 0.2 0.0 0.0 0.0 0.0
0.0 0.0 0.0 0.0 0.0 0.0 0.0 0.0 0.0 0.0 0.8 0.7 0.0 0.0 0.0 0.0 0.0 0.2 0.4 0.6 1.1 1.3 1.7 0.5 2.4 3.3 1.7 0.9 2.0 0.0 1.2 1.1 2.1 1.1 0.8 0.0 0.0 0.3 0.0 0.0 0.1 0.0 0.0 0.0
0.0 0.0 0.0 0.0 0.0 0.0 0.0 0.0 0.0 0.0 1.1 0.0 0.0 0.0 0.0 0.0 0.0 0.0 1.9 0.0 0.0 0.8 0.3 2.6 3.7 4.5 1.8 2.8 1.4 0.0 0.0 0.7 0.6 1.5 0.0 0.0 0.0 0.0 0.0 0.0 0.0 0.0 0.0 0.0
0.0 0.0 0.0 0.0 0.0 0.0 0.0 0.0 0.0 0.0 0.9 12.0 0.4 0.0 0.0 0.0 0.0 0.0 0.0 0.0 0.0 0.0 0.2 4.8 9.3 6.3 1.1 0.7 0.1 0.2 0.1 0.1 0.4 0.5 0.0 0.0 0.0 0.0 0.0 0.0 0.0 0.0 0.0 0.0
0.0 0.0 0.0 0.0 0.0 0.0 0.0 0.0 0.0 0.0 1.1 6.3 1.2 0.0 0.0 0.0 0.0 0.0 0.0 0.0 0.0 0.6 2.3 6.4 6.3 0.0 1.0 0.2 0.9 0.8 0.0 0.0 0.1 0.4 0.0 0.0 0.1 0.0 0.0 0.0 0.0 0.0 0.0 0.0
0.0 0.0 0.0 0.0 0.0 0.0 0.0 1.9 0.0 0.0 0.0 8.1 18.5 0.0 0.0 0.0 0.0 0.0 0.0 0.0 0.2 0.0 3.5 4.1 0.1 0.0 0.5 7.2 3.6 0.0 0.0 0.0 0.0 0.0 0.0 0.0 0.0 0.0 0.0 0.0 0.0 0.0 0.0 0.0
0.0 0.0 0.0 0.0 0.0 0.0 0.8 3.4 0.0 0.0 0.0 12.6 28.4 8.9 0.0 0.0 0.0 0.0 0.0 0.0 0.0 0.2 3.2 3.7 0.5 0.5 2.9 12.7 6.4 0.0 0.0 0.1 0.1 0.0 0.2 0.5 0.0 0.0 0.0 0.0 0.0 0.0 0.0 0.0
0.0 0.0 0.0 0.0 0.0 0.0 0.0 0.0 0.0 0.0 0.0 6.5 33.1 15.5 1.8 0.0 0.0 1.5 0.0 0.0 0.3 0.5 1.1 0.7 0.5 1.1 4.0 12.6 0.3 0.0 0.3 0.0 0.0 0.0 0.0 0.3 0.1 0.0 0.0 0.0 0.0 0.0 0.0 0.0
0.0 0.0 0.0 0.0 0.0 0.0 0.0 0.0 0.0 0.0 1.7 35.4 20.5 10.6 6.8 0.1 0.1 0.4 0.9 0.1 8.9 2.0 2.9 3.4 1.2 3.5 7.4 1.8 1.2 0.3 0.0 0.2 0.1 0.0 0.0 0.0 0.0 0.0 0.0 0.0 0.0 0.0 0.0 0.0
0.0 0.0 3.3 20.8 0.3 0.0 0.0 0.0 2.2 9.2 18.8 14.8 17.6 3.5 5.2 0.1 1.3 5.7 6.8 7.6 10.3 13.4 4.4 0.5 6.6 3.1 0.9 0.0 0.0 0.0 0.0 0.0 0.0 0.1 0.2 0.0 0.0 0.0 0.0 0.0 0.0 0.0 0.0 0.0
0.0 11.8 15.0 8.9 0.0 3.8 12.8 34.2 37.3 33.0 39.3 18.4 9.7 5.8 4.7 0.5 6.6 7.7 7.2 14.1 10.5 16.5 2.8 3.4 7.1 3.6 0.7 0.0 0.1 0.0 0.0 0.0 0.0 0.0 0.0 0.0 0.0 0.0 0.0 0.0 0.0 0.0 0.1 0.0
3.4 3.0 5.0 6.6 13.6 28.1 42.3 34.9 17.6 21.4 21.3 13.2 8.1 1.9 0.7 2.8 4.1 12.9 15.2 19.0 13.5 11.1 2.0 11.4 5.5 0.6 0.0 0.2 0.3 0.2 0.0 0.0 0.1 0.0 0.0 0.0 0.0 0.0 0.1 0.6 0.7 0.1 0.3 0.2
2.8 11.1 29.4 26.4 23.5 35.7 26.5 14.5 8.4 10.3 5.2 3.0 2.5 4.4 2.8 4.9 7.3 17.9 17.4 23.4 15.2 3.8 12.9 2.4 1.1 0.1 0.3 0.5 0.6 0.4 0.0 0.1 0.1 0.8 0.8 0.6 0.1 0.0 0.2 0.5 0.8 0.6 0.8 1.3
20.6 36.9 45.3 29.6 21.1 9.8 5.0 4.1 4.1 1.2 2.1 1.1 1.0 5.6 7.1 6.2 12.8 10.9 22.3 6.7 8.3 13.9 6.2 1.7 0.4 0.4 1.1 0.9 0.9 0.9 0.7 0.7 1.1 1.5 0.8 0.4 0.6 0.7 0.5 0.8 0.6 1.2 2.2 3.7
36.6 31.9 29.4 14.8 6.4 4.5 3.7 2.3 2.4 3.7 3.2 4.2 4.4 5.7 6.5 10.1 18.7 13.8 12.8 17.7 10.0 3.0 1.8 1.0 1.6 2.2 2.5 3.8 3.5 2.7 2.3 2.4 3.5 4.7 2.8 2.3 0.7 1.4 2.6 3.0 2.8 3.0 3.5 5.3
30.7 28.5 17.8 6.3 3.7 5.0 5.3 4.4 5.7 5.2 5.6 5.4 11.3 15.3 17.5 20.2 18.6 17.8 9.1 8.5 4.8 3.9 5.0 5.1 5.1 5.2 5.0 5.7 7.7 9.2 9.6 9.6 8.3 11.3 12.5 9.9 6.3 4.8 4.8 5.6 5.9 5.0 4.0 4.1
37.0 17.0 7.3 8.4 9.1 9.4 9.7 7.4 7.7 6.0 10.6 12.9 17.8 26.9 16.6 10.3 13.7 6.3 2.5 4.4 4.0 5.4 6.7 6.5 5.6 7.1 8.1 8.1 8.6 12.4 14.2 15.9 13.2 13.6 14.2 14.7 12.0 7.7 4.0 4.9 4.8 3.0 1.7 1.8

GFSNW_prec_kuchsnow_219.txt.gz
Snowfall_Accumulation
0.0 0.0 0.0 0.0 0.0 0.0 0.0 0.0 6.7 0.0 0.0 0.9 5.8 5.4 1.5 0.0 0.0 0.0 0.0 0.0 0.0 0.0 0.0 0.1 0.2 0.1 0.0 0.0 0.0 0.0 0.0 1.5 5.2 0.3 0.0 0.0 0.0 0.0 0.0 5.2 3.6 1.2 2.9 8.1
0.0 0.0 0.0 0.0 0.0 0.0 0.0 0.0 0.0 0.0 0.0 6.8 3.4 0.2 0.5 0.0 0.0 0.0 0.0 0.0 0.0 0.0 0.0 0.0 0.0 0.0 0.0 0.0 0.0 0.0 0.0 4.9 7.6 4.3 0.3 0.0 1.9 0.2 0.1 1.0 2.2 4.6 3.9 4.0
0.0 0.0 0.0 0.0 0.0 0.0 0.0 0.0 7.1 0.0 0.0 0.0 0.0 0.6 0.6 0.1 0.0 0.0 0.0 0.0 0.0 0.0 0.0 0.0 0.0 0.0 0.0 0.0 0.0 0.0 0.0 1.5 5.5 6.2 3.4 3.3 4.4 0.7 0.8 3.5 10.0 0.9 0.6 0.2
0.0 0.0 0.0 0.0 0.0 0.0 0.0 0.0 0.4 0.0 4.7 1.1 0.0 0.1 0.1 0.0 0.0 0.0 0.0 0.0 0.0 0.0 0.1 0.0 0.0 0.0 0.0 0.0 0.0 0.0 0.0 8.5 8.9 2.1 1.0 2.3 3.0 1.0 0.5 4.2 0.9 4.1 0.0 0.0
0.0 0.0 0.0 0.0 0.0 0.0 0.0 0.1 0.0 0.0 0.0 0.0 0.4 0.2 0.0 0.0 0.0 0.0 0.0 0.0 0.0 0.0 0.0 0.0 0.0 0.0 0.0 0.0 0.0 0.0 0.0 7.2 4.3 2.1 0.4 1.9 3.2 0.5 0.3 0.1 0.1 0.1 0.0 0.0
0.0 0.0 0.0 0.0 0.0 0.0 0.0 0.0 0.0 0.0 0.0 0.3 0.1 0.0 0.0 0.0 0.0 0.0 0.0 0.0 0.0 0.0 0.0 0.0 0.0 0.0 0.0 0.0 0.0 0.0 0.5 3.8 5.5 5.7 1.1 1.6 2.6 0.4 0.1 0.0 0.0 0.0 0.6 0.0
0.0 0.0 0.0 0.0 0.0 0.0 0.0 0.0 0.0 0.3 0.1 0.0 0.0 0.0 0.0 0.0 0.0 0.1 0.0 0.0 0.0 0.0 0.0 0.0 0.0 0.0 0.0 0.0 0.0 0.0 0.0 1.2 3.0 6.5 3.4 7.4 0.0 0.0 0.0 0.0 0.0 0.0 0.0 0.0
0.0 0.0 0.0 0.0 0.0 0.0 0.0 0.0 0.0 0.3 0.9 0.0 0.0 0.0 0.0 0.0 0.0 0.0 0.0 0.0 0.0 0.0 0.0 0.0 0.0 0.0 0.0 0.0 0.0 0.0 0.0 1.0 2.5 2.6 2.1 0.0 0.0 0.0 0.0 0.0 0.0 0.0 0.0 0.0
0.0 0.0 0.0 0.0 0.0 0.0 0.0 0.0 0.0 0.1 2.2 0.1 0.0 0.4 0.2 0.2 0.0 0.0 0.0 0.0 0.0 0.0 0.0 0.0 1.2 0.3 0.0 0.0 0.0 0.0 0.0 0.0 1.7 1.0 3.6 0.9 0.0 0.0 0.0 0.0 0.2 0.0 0.0 0.0
0.0 0.0 0.0 0.0 0.0 0.0 0.0 0.0 0.0 0.1 4.2 0.0 0.0 0.1 0.6 0.2 0.7 1.9 0.0 0.0 0.2 0.0 0.0 1.4 0.6 0.2 0.0 0.1 0.0 0.2 0.1 0.2 2.1 2.1 4.4 0.4 0.0 0.0 0.0 0.1 0.6 0.0 0.0 0.0
0.0 0.0 0.0 0.0 0.0 0.0 0.0 0.0 0.0 0.0 2.8 0.2 0.0 0.0 0.2 0.3 0.6 2.7 0.4 1.7 0.2 0.3 2.6 3.0 1.4 0.9 1.1 0.8 0.6 0.7 0.9 1.5 0.6 0.8 2.8 0.4 0.0 0.0 0.4 0.2 0.0 0.0 0.0 0.0
0.0 0.0 0.0 0.0 0.0 0.0 0.0 0.0 0.0 0.0 0.9 0.7 0.0 0.0 0.0 0.0 0.0 0.3 0.7 1.1 1.1 1.7 2.4 0.9 2.8 3.6 1.9 1.2 2.4 0.0 1.4 1.2 2.1 1.2 0.8 0.0 0.0 0.3 0.0 0.0 0.1 0.0 0.0 0.0
0.0 0.0 0.0 0.0 0.0 0.0 0.0 0.0 0.0 0.0 1.3 0.0 0.0 0.0 0.0 0.0 0.0 0.0 2.2 0.0 0.0 0.9 0.3 4.2 5.1 5.5 2.2 3.3 1.5 0.1 0.0 0.7 0.9 1.7 0.0 0.0 0.0 0.0 0.0 0.0 0.0 0.0 0.0 0.0
0.0 0.0 0.0 0.0 0.0 0.0 0.0 0.0 0.0 0.0 1.0 12.5 0.4 0.0 0.0 0.0 0.0 0.0 0.0 0.0 0.0 0.0 0.4 7.3 11.3 7.5 1.2 1.0 0.2 0.3 0.1 0.3 0.5 0.6 0.0 0.0 0.0 0.0 0.0 0.0 0.0 0.0 0.0 0.0
0.0 0.0 0.0 0.0 0.0 0.0 0.0 0.0 0.0 0.0 1.2 6.5 1.2 0.0 0.0 0.0 0.0 0.0 0.0 0.0 0.0 0.6 3.2 7.9 6.8 0.0 1.5 0.6 1.3 1.1 0.2 0.8 1.2 1.2 0.0 0.0 0.1 0.0 0.0 0.0 0.0 0.0 0.0 0.0
0.0 0.0 0.0 0.0 0.0 0.0 0.0 1.9 0.0 0.0 0.0 8.8 18.9 0.0 0.0 0.0 0.0 0.0 0.0 0.0 0.2 0.0 3.8 4.3 0.1 0.0 2.2 9.3 3.7 0.2 0.8 0.0 0.0 0.3 0.0 0.0 0.0 0.0 0.0 0.0 0.0 0.0 0.0 0.0
0.0 0.0 0.0 0.0 0.0 0.0 0.9 3.5 0.0 0.0 0.0 15.5 29.8 8.9 0.0 0.0 0.0 0.0 0.0 0.0 0.0 0.2 3.3 4.0 0.7 0.7 6.2 15.2 8.0 0.4 0.0 0.1 0.1 0.0 0.2 0.5 0.0 0.0 0.0 0.0 0.0 0.0 0.0 0.0
0.0 0.0 0.0 0.0 0.0 0.0 0.0 0.0 0.0 0.0 0.1 6.6 33.6 15.5 1.8 0.0 0.0 1.5 0.0 0.0 0.3 0.5 1.1 0.8 0.8 2.4 7.0 16.3 0.3 0.0 0.3 0.0 0.0 0.0 0.0 0.3 0.1 0.0 0.0 0.0 0.1 0.1 0.0 0.0
0.0 0.0 0.0 0.0 0.0 0.0 0.0 0.0 0.0 0.0 1.9 36.2 20.8 10.9 7.2 0.1 0.1 0.4 0.9 0.1 8.9 2.0 3.1 3.7 2.1 5.6 10.2 3.5 1.2 0.3 0.0 0.2 0.2 0.0 0.0 0.0 0.0 0.0 0.0 0.0 0.0 0.0 0.0 0.0
0.0 0.0 3.3 20.8 0.3 0.0 0.0 0.0 2.2 9.2 19.6 15.4 18.1 3.5 7.0 0.3 1.3 5.7 6.8 7.6 10.3 13.6 4.5 1.2 9.0 4.9 0.9 0.0 0.0 0.1 0.3 0.3 0.3 1.1 0.9 0.2 0.2 0.0 0.0 0.0 0.0 0.0 0.0 0.0
0.0 11.8 15.0 8.9 0.0 3.8 12.8 34.2 37.3 33.0 39.3 18.4 9.7 6.9 4.8 0.5 6.6 7.7 7.2 14.1 10.5 17.3 3.5 7.2 9.2 3.6 0.7 0.0 0.1 0.1 0.2 0.2 0.3 0.7 0.8 0.5 0.7 0.7 0.3 0.2 0.1 0.0 0.1 0.0
3.4 3.0 5.0 6.6 13.6 28.1 42.3 34.9 17.6 21.4 21.3 13.2 8.1 2.0 0.7 2.8 4.1 12.9 15.2 19.5 14.2 12.9 3.0 11.4 5.5 0.6 0.0 0.2 0.5 0.6 0.6 1.0 1.3 1.3 2.3 2.0 1.3 0.5 0.2 0.6 0.7 0.1 0.3 0.5
2.8 11.1 29.4 26.4 23.5 35.7 26.5 14.5 8.4 10.3 5.3 3.3 2.7 4.4 2.8 4.9 7.3 17.9 17.6 24.0 16.4 4.7 12.9 2.6 1.3 0.1 0.3 1.1 1.4 1.0 0.2 0.7 1.5 2.7 3.2 2.2 0.8 0.3 0.5 0.8 1.2 1.5 1.8 1.9
20.6 36.9 45.3 29.6 21.1 9.8 5.0 4.1 4.1 1.2 2.8 2.4 1.5 5.8 7.2 6.2 12.8 10.9 23.0 6.7 9.5 13.9 6.2 1.8 0.6 1.3 2.0 1.6 1.3 1.8 1.5 1.8 3.2 4.9 3.8 2.1 2.2 2.0 1.8 2.3 2.2 2.5 3.1 4.4
36.6 32.0 29.4 14.8 6.4 4.5 3.7 2.3 2.9 4.3 4.1 4.8 4.5 5.9 6.6 10.2 19.0 14.5 13.4 18.7 10.5 3.3 2.4 1.7 2.6 3.6 3.9 4.9 4.5 4.5 4.1 4.4 6.0 7.9 5.6 4.9 3.2 3.5 4.6 5.1 4.4 3.9 4.2 6.9
30.9 28.5 17.8 6.3 3.7 5.0 5.3 4.4 5.9 5.6 5.6 5.4 11.5 15.5 17.8 20.6 19.6 19.1 10.0 9.0 5.2 4.4 5.7 5.9 5.8 5.9 5.8 6.2 8.6 10.5 10.9 12.0 10.8 14.3 15.5 12.5 9.1 8.1 7.9 7.4 7.3 6.3 5.3 6.6
37.0 17.0 7.3 8.4 9.1 9.4 10.1 8.0 8.6 6.0 10.6 12.9 18.1 27.4 17.1 10.7 14.6 6.7 2.9 4.4 4.4 6.0 7.3 7.5 6.4 8.1 8.5 8.2 8.6 12.4 14.2 17.1 14.4 15.4 16.3 17.3 14.2 8.9 4.8 6.7 6.8 5.0 4.1 4.6